Regional Weather Roundup
Issued by NWS

Home | Current Version | Previous Version | Text Only | Print | Product List | Glossary Off
Versions: 1 2 3 4 5 6 7 8 9 10 11 12 13 14 15 16 17 18 19 20 21 22 23 24 25 26 27 28 29 30 31 32 33 34 35 36 37 38 39 40 41 42 43 44 45 46 47 48 49 50

697
ASUS45 KCYS 231710
RWRWY

WYOMING REGIONAL WEATHER ROUNDUP
NATIONAL WEATHER SERVICE CHEYENNE WY
1000 AM MST MON JAN 23 2017

NOTE:  "FAIR" INDICATES FEW OR NO CLOUDS BELOW 12,000 FEET
WITH NO SIGNIFICANT WEATHER AND/OR OBSTRUCTIONS TO VISIBILITY.

WYZ001-231800-
YELLOWSTONE NATIONAL PARK

CITY           SKY/WX    TMP DP  RH WIND       PRES   REMARKS
LK YELLOWSTONE   N/A      6   5  95 CALM      29.56S
W YELLOWSTONE  NOT AVBL

$$
WYZ002>013-054>058-071-098>099-231800-
NORTHERN WYOMING

CITY           SKY/WX    TMP DP  RH WIND       PRES   REMARKS
JACKSON        CLOUDY    18  16  93 CALM      29.56F
CODY           FAIR      21  13  71 CALM      29.62R
GREYBULL       FAIR      20  14  77 NW9       29.63R WCI   9
WORLAND        FAIR      19  17  92 SW3       29.61R
SHERIDAN       FAIR      24  20  84 S5        29.64R WCI  18
BUFFALO        FAIR      28  15  58 N10       29.59R WCI  19
GILLETTE       FAIR      34  24  67 VRB5      29.59R WCI  30
HULETT         FAIR      19  18  93 MISG      29.62R
NEWCASTLE      CLOUDY    28  28 100 CALM      29.63R

$$
WYZ014>020-022>026-101>103-231800-
CENTRAL WYOMING

CITY           SKY/WX    TMP DP  RH WIND       PRES   REMARKS
BIG PINEY      SNOW      19  17  92 NE5       29.56S VSB 1/4 WCI  12
PINEDALE       LGT SNOW  14  14 100 NW3       29.56F
DUBOIS         NOT AVBL
LANDER         PTSUNNY   20  13  74 N3        29.57S
RIVERTON       FAIR      16  14  92 W6        29.58S WCI   7
CASPER         FAIR      29  22  75 NW5G20    29.59S WCI  24
DOUGLAS        FAIR      36  24  62 NW12      29.60S WCI  28

$$
WYZ021-027>030-104>119-231800-
SOUTHERN WYOMING

CITY           SKY/WX    TMP DP  RH WIND       PRES   REMARKS
EVANSTON       PTSUNNY   24  20  84 E8        29.47F WCI  15
ROCK SPRINGS   CLOUDY    30  22  72 S10       29.55F WCI  21
RAWLINS        CLOUDY    32  24  72 SW24G31   29.58F WCI  19
LARAMIE        LGT SNOW  26  22  84 SE7       29.61S FOG     WCI  18
CHEYENNE       FAIR      41  21  44 W6        29.61R
TORRINGTON     CLOUDY    36  23  59 SE7       29.62F WCI  30

$$




USA.gov is the U.S. government's official web portal to all federal, state and local government web resources and services.